When you browse on this site, cookies collect data to enhance your experience and personalize the content and advertising you see.
Visit our Privacy Policy to learn more. By continuing to use the site, you agree to this use of cookies and data.
  • In Belgium
  • List of Countries
  • For 7 days
  • Water Temperature
  • Satellite Maps
  • Weather Map
  • Weather Widgets
  • user-avatar
    Login

    Hourly Weather Chardzhou

    Today, 20 November, Tuesday

    Time Temperature Precipitation Wind Pressure Humidity
    00:00 +9°C° 0 mm 3 mps 751 mmHg 78%
    01:00 +8°C° 0 mm 3 mps 751 mmHg 80%
    02:00 +8°C° 0 mm 3 mps 751 mmHg 82%
    03:00 +8°C° 0 mm 2 mps 752 mmHg 83%
    04:00 +7°C° 0 mm 2 mps 751 mmHg 84%
    05:00 +7°C° 0 mm 2 mps 752 mmHg 85%
    06:00 +7°C° 0 mm 2 mps 752 mmHg 86%
    07:00 +7°C° 0 mm 1 mps 753 mmHg 87%
    08:00 +8°C° 0 mm 1 mps 753 mmHg 82%
    09:00 +9°C° 0 mm 1 mps 753 mmHg 76%
    10:00 +9°C° 0 mm 2 mps 754 mmHg 68%
    11:00 +11°C° 0 mm 1 mps 753 mmHg 64%
    12:00 +12°C° 0 mm 1 mps 753 mmHg 60%
    13:00 +12°C° 0 mm 1 mps 753 mmHg 56%
    14:00 +12°C° 0 mm 1 mps 753 mmHg 55%
    15:00 +12°C° 0 mm 1 mps 752 mmHg 54%
    16:00 +13°C° 0 mm 1 mps 752 mmHg 53%
    17:00 +12°C° 0 mm 1 mps 752 mmHg 55%
    18:00 +12°C° 0 mm 2 mps 752 mmHg 56%
    19:00 +10°C° 0 mm 2 mps 752 mmHg 58%
    20:00 +10°C° 0 mm 2 mps 751 mmHg 59%
    21:00 +9°C° 0 mm 3 mps 751 mmHg 61%
    22:00 +9°C° 0 mm 3 mps 751 mmHg 62%
    23:00 +9°C° 0 mm 3 mps 750 mmHg 63%

    Tomorrow, 21 November, Wednesday

    Time Temperature Precipitation Wind Pressure Humidity
    00:00 +8°C° 0 mm 3 mps 750 mmHg 64%
    01:00 +7°C° 0 mm 4 mps 749 mmHg 66%
    02:00 +7°C° 0 mm 4 mps 749 mmHg 66%
    03:00 +7°C° 0 mm 4 mps 748 mmHg 67%
    04:00 +6°C° 0 mm 4 mps 747 mmHg 67%
    05:00 +6°C° 0 mm 4 mps 747 mmHg 67%
    06:00 +7°C° 0 mm 4 mps 746 mmHg 67%
    07:00 +7°C° 0 mm 4 mps 746 mmHg 66%
    08:00 +8°C° 0 mm 4 mps 745 mmHg 60%
    09:00 +10°C° 0 mm 3 mps 745 mmHg 55%
    10:00 +11°C° 0 mm 3 mps 745 mmHg 49%
    11:00 +12°C° 0 mm 4 mps 744 mmHg 48%
    12:00 +13°C° 0 mm 5 mps 744 mmHg 48%
    13:00 +13°C° 0 mm 5 mps 743 mmHg 47%
    14:00 +13°C° 1 mm 5 mps 743 mmHg 56%
    15:00 +12°C° 1 mm 4 mps 742 mmHg 65%
    16:00 +11°C° 1 mm 4 mps 742 mmHg 74%
    17:00 +11°C° 1.1 mm 3 mps 742 mmHg 77%
    18:00 +12°C° 1.1 mm 2 mps 742 mmHg 80%
    19:00 +12°C° 1.1 mm 2 mps 742 mmHg 83%
    20:00 +12°C° 0.3 mm 2 mps 742 mmHg 83%
    21:00 +12°C° 0.3 mm 2 mps 742 mmHg 83%
    22:00 +11°C° 0.3 mm 3 mps 742 mmHg 83%
    23:00 +11°C° 0 mm 3 mps 743 mmHg 83%

    Day after tomorrow, 22 November, Thursday

    Time Temperature Precipitation Wind Pressure Humidity
    00:00 +11°C° 0 mm 3 mps 743 mmHg 84%
    01:00 +11°C° 0 mm 4 mps 743 mmHg 84%
    02:00 +10°C° 0 mm 4 mps 743 mmHg 80%
    03:00 +10°C° 0 mm 4 mps 744 mmHg 76%
    04:00 +10°C° 0 mm 4 mps 744 mmHg 72%
    05:00 +10°C° 0 mm 4 mps 744 mmHg 69%
    06:00 +10°C° 0 mm 4 mps 745 mmHg 66%
    07:00 +10°C° 0 mm 4 mps 746 mmHg 63%
    08:00 +10°C° 0.2 mm 4 mps 746 mmHg 65%
    09:00 +11°C° 0.2 mm 4 mps 747 mmHg 67%
    10:00 +11°C° 0.2 mm 4 mps 747 mmHg 68%
    11:00 +12°C° 0.2 mm 3 mps 747 mmHg 68%
    12:00 +12°C° 0.2 mm 3 mps 747 mmHg 67%
    13:00 +13°C° 0.2 mm 2 mps 746 mmHg 67%
    14:00 +13°C° 0 mm 2 mps 746 mmHg 65%
    15:00 +14°C° 0 mm 2 mps 746 mmHg 64%
    16:00 +14°C° 0 mm 2 mps 746 mmHg 63%
    17:00 +13°C° 0 mm 2 mps 746 mmHg 64%
    18:00 +13°C° 0 mm 2 mps 746 mmHg 66%
    19:00 +12°C° 0 mm 2 mps 747 mmHg 68%
    20:00 +12°C° 0 mm 2 mps 747 mmHg 68%
    21:00 +12°C° 0 mm 2 mps 747 mmHg 67%
    22:00 +12°C° 0 mm 2 mps 747 mmHg 67%
    23:00 +11°C° 0 mm 3 mps 746 mmHg 67%

    23 November, Friday

    Time Temperature Precipitation Wind Pressure Humidity
    00:00 +11°C° 0 mm 3 mps 746 mmHg 67%
    01:00 +11°C° 0 mm 3 mps 746 mmHg 68%
    02:00 +11°C° 0 mm 4 mps 745 mmHg 69%
    03:00 +11°C° 0 mm 4 mps 745 mmHg 70%
    04:00 +11°C° 0 mm 4 mps 745 mmHg 71%
    05:00 +11°C° 0 mm 4 mps 745 mmHg 70%
    06:00 +11°C° 0 mm 4 mps 745 mmHg 70%
    07:00 +11°C° 0 mm 4 mps 745 mmHg 69%
    08:00 +13°C° 0 mm 5 mps 745 mmHg 62%
    09:00 +14°C° 0 mm 6 mps 745 mmHg 54%
    10:00 +16°C° 0 mm 7 mps 745 mmHg 47%
    11:00 +17°C° 0 mm 6 mps 745 mmHg 43%
    12:00 +19°C° 0 mm 6 mps 745 mmHg 40%
    13:00 +20°C° 0 mm 6 mps 744 mmHg 36%
    14:00 +20°C° 0 mm 5 mps 744 mmHg 38%
    15:00 +19°C° 0 mm 4 mps 744 mmHg 40%
    16:00 +19°C° 0 mm 2 mps 744 mmHg 42%
    17:00 +18°C° 0 mm 2 mps 744 mmHg 44%
    18:00 +17°C° 0 mm 2 mps 744 mmHg 46%
    19:00 +17°C° 0 mm 3 mps 744 mmHg 49%
    20:00 +16°C° 0 mm 3 mps 744 mmHg 49%
    21:00 +16°C° 0 mm 3 mps 744 mmHg 50%
    22:00 +16°C° 0 mm 3 mps 744 mmHg 50%
    23:00 +16°C° 0 mm 3 mps 744 mmHg 50%

    24 November, Saturday

    Time Temperature Precipitation Wind Pressure Humidity
    00:00 +16°C° 0 mm 3 mps 743 mmHg 49%
    01:00 +15°C° 0 mm 4 mps 743 mmHg 48%
    02:00 +15°C° 0 mm 4 mps 743 mmHg 48%
    03:00 +15°C° 0 mm 4 mps 744 mmHg 48%
    04:00 +15°C° 0 mm 4 mps 744 mmHg 48%
    05:00 +14°C° 0.1 mm 4 mps 745 mmHg 52%
    06:00 +14°C° 0.1 mm 5 mps 745 mmHg 57%
    07:00 +13°C° 0.1 mm 6 mps 746 mmHg 61%
    08:00 +11°C° 0.3 mm 6 mps 747 mmHg 65%
    09:00 +11°C° 0.3 mm 7 mps 749 mmHg 69%
    10:00 +10°C° 0.3 mm 7 mps 750 mmHg 74%
    11:00 +9°C° 0.3 mm 8 mps 751 mmHg 69%
    12:00 +9°C° 0.3 mm 8 mps 752 mmHg 65%
    13:00 +7°C° 0.3 mm 9 mps 752 mmHg 60%
    14:00 +7°C° 0.1 mm 8 mps 754 mmHg 53%
    15:00 +6°C° 0.1 mm 7 mps 755 mmHg 45%
    16:00 +5°C° 0.1 mm 7 mps 756 mmHg 38%
    17:00 +5°C° 0 mm 7 mps 757 mmHg 34%
    18:00 +4°C° 0 mm 6 mps 758 mmHg 31%
    19:00 +4°C° 0 mm 6 mps 759 mmHg 27%
    20:00 +3°C° 0 mm 6 mps 759 mmHg 27%
    21:00 +3°C° 0 mm 6 mps 760 mmHg 28%
    22:00 +2°C° 0 mm 6 mps 760 mmHg 28%
    23:00 +2°C° 0 mm 6 mps 760 mmHg 30%

    25 November, Sunday

    Time Temperature Precipitation Wind Pressure Humidity
    00:00 +2°C° 0 mm 6 mps 760 mmHg 33%
    01:00 +1°C° 0 mm 6 mps 760 mmHg 35%
    02:00 +1°C° 0 mm 5 mps 760 mmHg 37%
    03:00 +1°C° 0 mm 5 mps 760 mmHg 39%
    04:00 0°C° 0 mm 5 mps 759 mmHg 41%
    05:00 0°C° 0 mm 5 mps 759 mmHg 43%
    06:00 0°C° 0 mm 4 mps 759 mmHg 45%
    07:00 -1°C° 0 mm 4 mps 759 mmHg 47%
    08:00 0°C° 0 mm 4 mps 759 mmHg 45%
    09:00 +1°C° 0 mm 4 mps 758 mmHg 42%
    10:00 +3°C° 0 mm 4 mps 758 mmHg 40%
    11:00 +4°C° 0 mm 4 mps 757 mmHg 36%
    12:00 +5°C° 0 mm 3 mps 756 mmHg 33%
    13:00 +7°C° 0 mm 3 mps 755 mmHg 29%
    14:00 +8°C° 0 mm 3 mps 755 mmHg 29%
    15:00 +8°C° 0 mm 3 mps 754 mmHg 29%
    16:00 +9°C° 0 mm 3 mps 753 mmHg 29%
    17:00 +8°C° 0 mm 3 mps 753 mmHg 32%
    18:00 +8°C° 0 mm 3 mps 753 mmHg 35%
    19:00 +7°C° 0 mm 3 mps 752 mmHg 37%
    20:00 +7°C° 0 mm 3 mps 752 mmHg 39%
    21:00 +7°C° 0 mm 3 mps 751 mmHg 41%
    22:00 +7°C° 0 mm 3 mps 751 mmHg 43%
    23:00 +7°C° 0 mm 3 mps 750 mmHg 43%
    Show more